Tracking 22879 objects as of 22-Apr-2021
HD Live streaming from Space Station
objects crossing your sky now

SL-8 DEB

Track SL-8 DEB now!
10-day predictions


NORAD ID: 21161
Int'l Code: 1991-009Y
Perigee: 1,497.4 km
Apogee: 1,707.0 km
Inclination: 74.1 °
Period: 118.1 minutes
Semi major axis: 7973 km
RCS: 0.2642 m2 (medium)
Launch date: February 12, 1991
Source: Commonwealth of Independent States (former USSR) (CIS)
Launch site: PLESETSK MISSILE AND SPACE COMPLEX (PKMTR)

Note: This is SATELLITE DEBRIS
aabbcc
Your satellite tracking list
Your tracking list is empty




NASA's NSSDC Master Catalog

Two Line Element Set (TLE):
1 21161U 91009Y   21111.88086397 -.00000004  00000-0  93523-4 0  9996
2 21161  74.0729  73.3756 0131426  63.0151   3.1236 12.19418203341224
Source of the keplerian elements: AFSPC